Location: Newark
(34.9471°N, 136.1778°E)
Time: 21:38:55
(UTC+00:00)

XW-2C - Pass Details

Date: 24 February 2020
Orbit: 509 x 527 km, 97.5° (Epoch: 06 April)

Event Time Altitude Azimuth Distance (km) Brightness Sun altitude
Rises 20:33:56 0° 17° (NNE) 2,639 ? -12.4°
Reaches altitude 10° 20:36:04 10° 22° (NNE) 1,751 ? -12.0°
Maximum altitude 20:39:47 54° 100° (E) 636 ? -11.2°
Drops below altitude 10° 20:43:28 10° 178° (S) 1,748 ? -10.5°
Sets 20:45:36 0° 183° (S) 2,635 ? -10.0°
